| time (UTC) | temp F | wind direction | speed MPH | gust MPH | rain 1hr in | rain 24hr in | rain mn in | humidity % | barometer mb |
| 20260505074008 | 65 | 193 | 14.0 | 28.0 | 0.00 | 0.01 | 0.00 | 67 | 1001.8 |
| 20260505073511 | 64 | 247 | 12.0 | 29.0 | 0.00 | 0.01 | 0.00 | 68 | 1001.9 |
| 20260505073006 | 64 | 201 | 16.0 | 30.0 | 0.00 | 0.01 | 0.00 | 68 | 1001.8 |
| 20260505072505 | 64 | 170 | 10.0 | 30.0 | 0.00 | 0.01 | 0.00 | 68 | 1001.9 |
| 20260505072005 | 64 | 201 | 12.0 | 24.0 | 0.00 | 0.01 | 0.00 | 68 | 1001.8 |
| 20260505071515 | 64 | 191 | 8.0 | 24.0 | 0.00 | 0.01 | 0.00 | 68 | 1001.6 |
| 20260505071005 | 64 | 198 | 7.0 | 23.0 | 0.00 | 0.01 | 0.00 | 68 | 1001.7 |
| 20260505070507 | 65 | 218 | 14.0 | 26.0 | 0.00 | 0.01 | 0.00 | 68 | 1001.7 |
| 20260505070003 | 65 | 185 | 13.0 | 26.0 | 0.00 | 0.01 | 0.00 | 67 | 1001.8 |
| 20260505065502 | 65 | 204 | 12.0 | 24.0 | 0.00 | 0.01 | 0.00 | 66 | 1002.0 |
| 20260505065004 | 65 | 203 | 12.0 | 22.0 | 0.00 | 0.01 | 0.00 | 66 | 1002.1 |
| 20260505064504 | 65 | 245 | 8.0 | 22.0 | 0.00 | 0.01 | 0.00 | 66 | 1002.0 |
| 20260505064002 | 65 | 169 | 11.0 | 26.0 | 0.00 | 0.01 | 0.00 | 66 | 1002.0 |
| 20260505063600 | 65 | 184 | 9.0 | 29.0 | 0.00 | 0.01 | 0.00 | 66 | 1002.0 |
| 20260505063059 | 65 | 226 | 12.0 | 29.0 | 0.00 | 0.01 | 0.00 | 66 | 1002.0 |
| 20260505062602 | 65 | 205 | 11.0 | 24.0 | 0.00 | 0.01 | 0.00 | 66 | 1002.1 |
| 20260505062100 | 65 | 173 | 9.0 | 21.0 | 0.00 | 0.01 | 0.00 | 66 | 1002.1 |
| 20260505061556 | 65 | 190 | 11.0 | 22.0 | 0.00 | 0.01 | 0.00 | 66 | 1002.3 |
| 20260505061056 | 65 | 203 | 10.0 | 23.0 | 0.00 | 0.01 | 0.00 | 66 | 1002.3 |
| 20260505060557 | 65 | 206 | 10.0 | 23.0 | 0.00 | 0.01 | 0.00 | 66 | 1002.3 |
| 20260505060056 | 65 | 179 | 7.0 | 32.0 | 0.00 | 0.01 | 0.00 | 66 | 1002.3 |
| 20260505055558 | 65 | 202 | 14.0 | 32.0 | 0.00 | 0.01 | 0.00 | 66 | 1002.4 |
| 20260505055055 | 65 | 201 | 9.0 | 26.0 | 0.00 | 0.01 | 0.00 | 66 | 1002.4 |
| 20260505054554 | 65 | 195 | 15.0 | 33.0 | 0.00 | 0.01 | 0.00 | 66 | 1002.6 |
| 20260505054055 | 65 | 224 | 15.0 | 29.0 | 0.00 | 0.01 | 0.00 | 66 | 1002.5 |
| 20260505053551 | 65 | 200 | 11.0 | 27.0 | 0.00 | 0.01 | 0.00 | 66 | 1002.6 |
| 20260505053152 | 65 | 247 | 12.0 | 25.0 | 0.00 | 0.01 | 0.00 | 66 | 1002.6 |
| 20260505052550 | 65 | 181 | 11.0 | 25.0 | 0.00 | 0.01 | 0.00 | 66 | 1002.7 |
| 20260505052049 | 65 | 173 | 11.0 | 25.0 | 0.00 | 0.01 | 0.00 | 67 | 1002.8 |
| 20260505051558 | 65 | 191 | 8.0 | 23.0 | 0.00 | 0.01 | 0.00 | 67 | 1002.7 |
| 20260505051048 | 65 | 197 | 11.0 | 22.0 | 0.00 | 0.01 | 0.00 | 67 | 1002.9 |
| 20260505050551 | 65 | 201 | 11.0 | 27.0 | 0.00 | 0.01 | 0.00 | 67 | 1002.8 |
| 20260505041540 | 64 | 175 | 10.0 | 23.0 | 0.00 | 0.01 | 0.00 | 67 | 1003.2 |
| 20260505041039 | 64 | 159 | 10.0 | 23.0 | 0.00 | 0.01 | 0.00 | 67 | 1003.2 |
| 20260505040538 | 64 | 173 | 11.0 | 23.0 | 0.00 | 0.01 | 0.00 | 67 | 1003.2 |
| 20260505040038 | 64 | 236 | 9.0 | 21.0 | 0.00 | 0.01 | 0.00 | 67 | 1003.2 |
| 20260505035537 | 64 | 176 | 8.0 | 21.0 | 0.00 | 0.01 | 0.01 | 67 | 1003.3 |
| 20260505035036 | 64 | 201 | 9.0 | 21.0 | 0.00 | 0.01 | 0.01 | 67 | 1003.4 |
| 20260505034536 | 64 | 201 | 12.0 | 21.0 | 0.00 | 0.01 | 0.01 | 67 | 1003.5 |
| 20260505034037 | 64 | 205 | 9.0 | 27.0 | 0.00 | 0.01 | 0.01 | 67 | 1003.4 |
| 20260505033536 | 64 | 152 | 14.0 | 28.0 | 0.00 | 0.01 | 0.01 | 66 | 1003.3 |
| 20260505033038 | 64 | 125 | 14.0 | 28.0 | 0.00 | 0.01 | 0.01 | 66 | 1003.5 |
| 20260505032535 | 64 | 168 | 10.0 | 23.0 | 0.00 | 0.01 | 0.01 | 66 | 1003.5 |
| 20260505032038 | 65 | 161 | 8.0 | 23.0 | 0.00 | 0.01 | 0.01 | 66 | 1003.5 |
| 20260505031534 | 65 | 206 | 9.0 | 25.0 | 0.00 | 0.01 | 0.01 | 66 | 1003.6 |
| 20260505031035 | 65 | 173 | 9.0 | 25.0 | 0.00 | 0.01 | 0.01 | 66 | 1003.5 |
| 20260505030536 | 65 | 168 | 11.0 | 25.0 | 0.00 | 0.01 | 0.01 | 66 | 1003.6 |
| 20260505030034 | 65 | 193 | 5.0 | 20.0 | 0.00 | 0.01 | 0.01 | 65 | 1003.6 |
| 20260505025534 | 65 | 188 | 10.0 | 24.0 | 0.00 | 0.01 | 0.01 | 65 | 1003.5 |
| 20260505025036 | 65 | 200 | 12.0 | 24.0 | 0.00 | 0.01 | 0.01 | 65 | 1003.6 |
| 20260505024534 | 65 | 241 | 8.0 | 26.0 | 0.00 | 0.01 | 0.01 | 65 | 1003.6 |
| 20260505024036 | 65 | 169 | 11.0 | 26.0 | 0.00 | 0.01 | 0.01 | 64 | 1003.6 |
| 20260505023538 | 65 | 204 | 8.0 | 25.0 | 0.00 | 0.01 | 0.01 | 64 | 1003.5 |
| 20260505023033 | 65 | 188 | 9.0 | 19.0 | 0.00 | 0.01 | 0.01 | 64 | 1003.6 |
| 20260505022533 | 66 | 180 | 7.0 | 21.0 | 0.00 | 0.01 | 0.01 | 63 | 1003.5 |
| 20260505022032 | 66 | 171 | 11.0 | 21.0 | 0.00 | 0.01 | 0.01 | 63 | 1003.5 |
| 20260505021533 | 66 | 179 | 8.0 | 19.0 | 0.00 | 0.01 | 0.01 | 62 | 1003.5 |
| 20260505021032 | 66 | 100 | 8.0 | 21.0 | 0.00 | 0.01 | 0.01 | 62 | 1003.5 |
| 20260505020532 | 66 | 188 | 9.0 | 23.0 | 0.00 | 0.01 | 0.01 | 61 | 1003.8 |
| 20260505020032 | 66 | 149 | 12.0 | 33.0 | 0.00 | 0.01 | 0.01 | 61 | 1003.8 |
| 20260505015532 | 67 | 229 | 9.0 | 33.0 | 0.00 | 0.01 | 0.01 | 61 | 1003.8 |
| 20260505015035 | 67 | 213 | 8.0 | 29.0 | 0.00 | 0.01 | 0.01 | 60 | 1003.7 |
| 20260505014532 | 67 | 221 | 13.0 | 32.0 | 0.00 | 0.01 | 0.01 | 60 | 1003.7 |
| 20260505014033 | 67 | 213 | 10.0 | 32.0 | 0.00 | 0.01 | 0.01 | 60 | 1003.7 |
| 20260505013531 | 67 | 192 | 10.0 | 22.0 | 0.00 | 0.01 | 0.01 | 59 | 1003.6 |
| 20260505013039 | 67 | 96 | 8.0 | 23.0 | 0.00 | 0.01 | 0.01 | 59 | 1003.6 |
| 20260505012530 | 67 | 236 | 11.0 | 28.0 | 0.00 | 0.01 | 0.01 | 59 | 1003.5 |
| 20260505012030 | 67 | 190 | 15.0 | 28.0 | 0.00 | 0.01 | 0.01 | 59 | 1003.5 |
| 20260505011530 | 67 | 188 | 14.0 | 27.0 | 0.00 | 0.01 | 0.01 | 59 | 1003.5 |
| 20260505011029 | 68 | 229 | 10.0 | 18.0 | 0.00 | 0.01 | 0.01 | 58 | 1003.3 |
| 20260505010529 | 68 | 179 | 7.0 | 26.0 | 0.00 | 0.01 | 0.01 | 58 | 1003.4 |
| 20260505010030 | 68 | 204 | 13.0 | 26.0 | 0.00 | 0.01 | 0.01 | 58 | 1003.4 |
| 20260505005533 | 68 | 210 | 8.0 | 21.0 | 0.00 | 0.01 | 0.01 | 58 | 1003.2 |
| 20260505005029 | 68 | 220 | 8.0 | 20.0 | 0.00 | 0.01 | 0.01 | 58 | 1003.2 |
| 20260505004529 | 68 | 177 | 8.0 | 18.0 | 0.00 | 0.01 | 0.01 | 58 | 1003.1 |
| 20260505004029 | 68 | 214 | 8.0 | 20.0 | 0.00 | 0.01 | 0.01 | 58 | 1003.0 |
| 20260505003533 | 68 | 199 | 11.0 | 20.0 | 0.00 | 0.01 | 0.01 | 58 | 1003.0 |
| 20260505003032 | 68 | 309 | 6.0 | 18.0 | 0.00 | 0.01 | 0.01 | 57 | 1003.0 |
| 20260505002528 | 69 | 218 | 9.0 | 21.0 | 0.00 | 0.01 | 0.01 | 57 | 1003.0 |
| 20260505002030 | 69 | 238 | 9.0 | 30.0 | 0.00 | 0.01 | 0.01 | 57 | 1002.9 |
| 20260505001528 | 69 | 167 | 15.0 | 30.0 | 0.00 | 0.01 | 0.01 | 57 | 1002.8 |
| 20260505001029 | 69 | 211 | 16.0 | 28.0 | 0.00 | 0.01 | 0.01 | 57 | 1002.8 |
| 20260505000531 | 69 | 184 | 10.0 | 26.0 | 0.00 | 0.01 | 0.01 | 57 | 1002.6 |
| 20260505000029 | 69 | 176 | 9.0 | 21.0 | 0.00 | 0.01 | 0.01 | 57 | 1002.5 |
| 20260504235527 | 70 | 217 | 9.0 | 27.0 | 0.00 | 0.01 | 0.01 | 56 | 1002.4 |
| 20260504235027 | 70 | 189 | 19.0 | 27.0 | 0.00 | 0.01 | 0.01 | 56 | 1002.3 |
| 20260504234526 | 70 | 185 | 9.0 | 21.0 | 0.00 | 0.01 | 0.01 | 56 | 1002.3 |
| 20260504234031 | 70 | 190 | 11.0 | 19.0 | 0.01 | 0.01 | 0.01 | 57 | 1002.3 |
| 20260504233526 | 70 | 194 | 9.0 | 33.0 | 0.01 | 0.01 | 0.01 | 57 | 1002.2 |
| 20260504233026 | 70 | 240 | 18.0 | 33.0 | 0.01 | 0.01 | 0.01 | 57 | 1002.3 |
| 20260504232526 | 70 | 191 | 8.0 | 26.0 | 0.01 | 0.01 | 0.01 | 58 | 1002.2 |
| 20260504232027 | 70 | 202 | 7.0 | 35.0 | 0.01 | 0.01 | 0.01 | 58 | 1002.2 |
| 20260504231526 | 70 | 209 | 9.0 | 35.0 | 0.01 | 0.01 | 0.01 | 58 | 1002.2 |
| 20260504231025 | 70 | 181 | 14.0 | 31.0 | 0.01 | 0.01 | 0.01 | 59 | 1002.3 |
| 20260504230525 | 70 | 214 | 11.0 | 29.0 | 0.01 | 0.01 | 0.01 | 60 | 1002.4 |
| 20260504230025 | 70 | 216 | 14.0 | 39.0 | 0.01 | 0.01 | 0.01 | 60 | 1002.2 |
| 20260504225524 | 69 | 196 | 14.0 | 39.0 | 0.01 | 0.01 | 0.01 | 61 | 1002.4 |
| 20260504225024 | 69 | 220 | 9.0 | 31.0 | 0.01 | 0.01 | 0.01 | 63 | 1002.7 |
| 20260504224522 | 69 | 229 | 13.0 | 32.0 | 0.01 | 0.01 | 0.01 | 63 | 1002.7 |
| 20260504224022 | 68 | 184 | 16.0 | 32.0 | 0.00 | 0.00 | 0.00 | 64 | 1002.7 |
| 20260504223521 | 68 | 205 | 8.0 | 21.0 | 0.00 | 0.00 | 0.00 | 67 | 1002.6 |
| 20260504223020 | 67 | 183 | 11.0 | 21.0 | 0.00 | 0.00 | 0.00 | 68 | 1002.7 |
| 20260504222523 | 67 | 160 | 5.0 | 17.0 | 0.00 | 0.00 | 0.00 | 69 | 1002.8 |
| 20260504222021 | 67 | 214 | 7.0 | 17.0 | 0.00 | 0.00 | 0.00 | 70 | 1002.8 |
| 20260504221518 | 67 | 126 | 4.0 | 11.0 | 0.00 | 0.00 | 0.00 | 70 | 1003.0 |
| 20260504221018 | 67 | 227 | 6.0 | 18.0 | 0.00 | 0.00 | 0.00 | 68 | 1003.2 |
| 20260504220518 | 68 | 206 | 8.0 | 27.0 | 0.00 | 0.00 | 0.00 | 68 | 1003.2 |
| 20260504220029 | 68 | 204 | 10.0 | 35.0 | 0.00 | 0.00 | 0.00 | 66 | 1003.3 |
| 20260504215515 | 69 | 210 | 19.0 | 35.0 | 0.00 | 0.00 | 0.00 | 64 | 1003.5 |
| 20260504215014 | 71 | 153 | 17.0 | 31.0 | 0.00 | 0.00 | 0.00 | 57 | 1003.2 |
| 20260504214520 | 71 | 260 | 7.0 | 23.0 | 0.00 | 0.00 | 0.00 | 56 | 1003.1 |
| 20260504214017 | 71 | 194 | 13.0 | 23.0 | 0.00 | 0.00 | 0.00 | 56 | 1003.1 |
| 20260504213513 | 71 | 274 | 10.0 | 21.0 | 0.00 | 0.00 | 0.00 | 56 | 1002.9 |
| 20260504213133 | 71 | 276 | 9.0 | 20.0 | 0.00 | 0.00 | 0.00 | 57 | 1002.9 |
| 20260504212511 | 71 | 167 | 9.0 | 28.0 | 0.00 | 0.00 | 0.00 | 56 | 1003.0 |
| 20260504212010 | 71 | 184 | 15.0 | 24.0 | 0.00 | 0.00 | 0.00 | 55 | 1003.0 |
| 20260504211521 | 71 | 197 | 13.0 | 28.0 | 0.00 | 0.00 | 0.00 | 54 | 1003.1 |
| 20260504211008 | 71 | 201 | 15.0 | 28.0 | 0.00 | 0.00 | 0.00 | 54 | 1003.3 |
| 20260504210508 | 71 | 204 | 14.0 | 28.0 | 0.00 | 0.00 | 0.00 | 55 | 1003.4 |
| 20260504210007 | 71 | 219 | 13.0 | 28.0 | 0.00 | 0.00 | 0.00 | 54 | 1003.3 |
| 20260504205509 | 71 | 201 | 14.0 | 26.0 | 0.00 | 0.00 | 0.00 | 53 | 1003.5 |
| 20260504205005 | 72 | 206 | 13.0 | 29.0 | 0.00 | 0.00 | 0.00 | 52 | 1003.5 |
| 20260504204514 | 72 | 226 | 8.0 | 32.0 | 0.00 | 0.00 | 0.00 | 53 | 1003.5 |
| 20260504204005 | 72 | 215 | 15.0 | 37.0 | 0.00 | 0.00 | 0.00 | 52 | 1003.5 |
| 20260504203508 | 72 | 207 | 15.0 | 37.0 | 0.00 | 0.00 | 0.00 | 51 | 1003.5 |
| 20260504203006 | 72 | 166 | 13.0 | 31.0 | 0.00 | 0.00 | 0.00 | 51 | 1003.6 |
| 20260504202503 | 72 | 205 | 15.0 | 35.0 | 0.00 | 0.00 | 0.00 | 51 | 1003.7 |
| 20260504202001 | 73 | 231 | 18.0 | 35.0 | 0.00 | 0.00 | 0.00 | 49 | 1003.8 |
| 20260504201503 | 73 | 213 | 16.0 | 28.0 | 0.00 | 0.00 | 0.00 | 50 | 1003.9 |
| 20260504201001 | 73 | 229 | 15.0 | 24.0 | 0.00 | 0.00 | 0.00 | 50 | 1003.7 |
| 20260504200600 | 73 | 220 | 12.0 | 29.0 | 0.00 | 0.00 | 0.00 | 49 | 1003.8 |
| 20260504200107 | 73 | 213 | 15.0 | 36.0 | 0.00 | 0.00 | 0.00 | 49 | 1003.9 |
| 20260504195559 | 73 | 161 | 11.0 | 36.0 | 0.00 | 0.00 | 0.00 | 50 | 1004.0 |
| 20260504195059 | 73 | 221 | 14.0 | 28.0 | 0.00 | 0.00 | 0.00 | 48 | 1004.1 |
| 20260504194609 | 73 | 189 | 16.0 | 36.0 | 0.00 | 0.00 | 0.00 | 48 | 1004.2 |
| 20260504194058 | 73 | 195 | 14.0 | 36.0 | 0.00 | 0.00 | 0.00 | 49 | 1004.1 |
| 20260504193558 | 73 | 175 | 13.0 | 25.0 | 0.00 | 0.00 | 0.00 | 49 | 1004.1 |
| 20260504193104 | 73 | 188 | 13.0 | 36.0 | 0.00 | 0.00 | 0.00 | 50 | 1004.2 |
| 20260504192555 | 73 | 221 | 15.0 | 36.0 | 0.00 | 0.00 | 0.00 | 47 | 1004.4 |
| 20260504192104 | 73 | 211 | 12.0 | 25.0 | 0.00 | 0.00 | 0.00 | 51 | 1004.5 |
| 20260504191600 | 72 | 185 | 13.0 | 26.0 | 0.00 | 0.00 | 0.00 | 50 | 1004.4 |
| 20260504191054 | 72 | 180 | 13.0 | 34.0 | 0.00 | 0.00 | 0.00 | 51 | 1004.6 |
| 20260504190553 | 72 | 131 | 14.0 | 34.0 | 0.00 | 0.00 | 0.00 | 51 | 1004.6 |
| 20260504190113 | 72 | 180 | 10.0 | 27.0 | 0.00 | 0.00 | 0.00 | 51 | 1004.7 |
| 20260504185556 | 72 | 162 | 12.0 | 27.0 | 0.00 | 0.00 | 0.00 | 51 | 1004.7 |
| 20260504185050 | 72 | 176 | 13.0 | 27.0 | 0.00 | 0.00 | 0.00 | 51 | 1004.9 |
| 20260504184608 | 72 | 197 | 14.0 | 26.0 | 0.00 | 0.00 | 0.00 | 51 | 1004.9 |
| 20260504184049 | 72 | 245 | 13.0 | 31.0 | 0.00 | 0.00 | 0.00 | 52 | 1005.0 |
| 20260504183549 | 72 | 223 | 17.0 | 31.0 | 0.00 | 0.00 | 0.00 | 51 | 1005.1 |
| 20260504183048 | 72 | 216 | 16.0 | 35.0 | 0.00 | 0.00 | 0.00 | 51 | 1005.2 |
| 20260504182547 | 72 | 218 | 13.0 | 35.0 | 0.00 | 0.00 | 0.00 | 51 | 1005.1 |
| 20260504182047 | 72 | 234 | 16.0 | 28.0 | 0.00 | 0.00 | 0.00 | 50 | 1005.2 |
| 20260504181548 | 72 | 198 | 10.0 | 31.0 | 0.00 | 0.00 | 0.00 | 49 | 1005.2 |
| 20260504181044 | 72 | 221 | 12.0 | 31.0 | 0.00 | 0.00 | 0.00 | 53 | 1005.2 |
| 20260504180544 | 71 | 171 | 9.0 | 29.0 | 0.00 | 0.00 | 0.00 | 49 | 1005.2 |
| 20260504180044 | 72 | 147 | 14.0 | 28.0 | 0.00 | 0.00 | 0.00 | 49 | 1005.4 |
| 20260504175542 | 71 | 230 | 8.0 | 28.0 | 0.00 | 0.00 | 0.00 | 51 | 1005.4 |
| 20260504175042 | 71 | 227 | 12.0 | 27.0 | 0.00 | 0.00 | 0.00 | 51 | 1005.5 |
| 20260504174542 | 71 | 130 | 13.0 | 27.0 | 0.00 | 0.00 | 0.00 | 49 | 1005.5 |
| 20260504174041 | 71 | 173 | 15.0 | 27.0 | 0.00 | 0.00 | 0.00 | 50 | 1005.6 |
| 20260504173541 | 71 | 176 | 10.0 | 21.0 | 0.00 | 0.00 | 0.00 | 50 | 1005.6 |
| 20260504173039 | 71 | 154 | 9.0 | 26.0 | 0.00 | 0.00 | 0.00 | 51 | 1005.7 |
| 20260504172539 | 71 | 163 | 11.0 | 26.0 | 0.00 | 0.00 | 0.00 | 50 | 1005.6 |
| 20260504172038 | 71 | 188 | 11.0 | 26.0 | 0.00 | 0.00 | 0.00 | 50 | 1005.7 |
| 20260504171537 | 71 | 209 | 8.0 | 18.0 | 0.00 | 0.00 | 0.00 | 52 | 1005.8 |
| 20260504171037 | 71 | 214 | 8.0 | 19.0 | 0.00 | 0.00 | 0.00 | 54 | 1005.8 |
| 20260504170534 | 70 | 223 | 8.0 | 25.0 | 0.00 | 0.00 | 0.00 | 52 | 1005.9 |
| 20260504151011 | 65 | 220 | 11.0 | 28.0 | 0.00 | 0.00 | 0.00 | 56 | 1007.0 |
| 20260504150510 | 65 | 211 | 13.0 | 28.0 | 0.00 | 0.00 | 0.00 | 56 | 1007.0 |
| 20260504141056 | 62 | 240 | 11.0 | 20.0 | 0.00 | 0.00 | 0.00 | 59 | 1007.3 |
| 20260504140554 | 61 | 204 | 11.0 | 19.0 | 0.00 | 0.00 | 0.00 | 60 | 1007.4 |
| 20260504140107 | 61 | 203 | 8.0 | 21.0 | 0.00 | 0.00 | 0.00 | 60 | 1007.5 |
| 20260504130541 | 57 | 213 | 9.0 | 20.0 | 0.00 | 0.00 | 0.00 | 62 | 1007.8 |
| 20260504110519 | 50 | 216 | 10.0 | 24.0 | 0.00 | 0.00 | 0.00 | 65 | 1007.7 |
| 20260504100511 | 51 | 180 | 9.0 | 23.0 | 0.00 | 0.00 | 0.00 | 64 | 1007.6 |
| 20260504081557 | 51 | 210 | 13.0 | 25.0 | 0.00 | 0.00 | 0.00 | 62 | 1008.5 |
| 20260504081057 | 51 | 202 | 12.0 | 25.0 | 0.00 | 0.00 | 0.00 | 62 | 1008.6 |
| 20260504080559 | 51 | 212 | 11.0 | 24.0 | 0.00 | 0.00 | 0.00 | 62 | 1008.6 |